[[{"header":{"parameterUnit":"m.s-1","parameterCategory":1,"la1":30.2992,"la2":30.254,"lo1":-89.0895,"lo2":-89.0443,"dy":0.0025,"dx":0.0025,"nx":19,"ny":19,"refTime":"2026-03-13T09:00:00:Z","depth":0,"parameterNumber":2,"parameterNumberName":"U-component_of_WINDS"},"data":[0,0,0,-4.5211,-4.5215,-4.543,-4.5431,-4.5692,-4.5694,0,0,0,0,0,0,0,0,0,0,0,-4.5139,-4.514,-4.521,-4.5216,-4.543,-4.5431,-4.5692,-4.5694,0,0,0,0,0,0,0,0,0,0,0,-4.5138,-4.514,-4.5142,-4.5216,-4.543,-4.5431,-4.5691,-4.5534,0,0,0,0,0,0,0,0,0,0,-4.5327,-4.5253,-4.514,-4.5142,-4.5217,-4.543,-4.5431,-4.5526,-4.5544,-4.5589,0,-4.5627,0,-4.5665,-4.5711,-4.5712,0,0,0,-4.5221,-4.5239,-4.5304,-4.5142,-4.5219,-4.543,-4.5335,-4.5536,-4.5556,-4.5611,-4.5631,-4.5641,-4.567,-4.5713,-4.5714,-4.5959,-4.5959,0,0,-4.5209,-4.5173,-4.5291,-4.5316,-4.5283,-4.5328,-4.5342,-4.5548,-4.5567,-4.5632,-4.5648,-4.5674,-4.5714,-4.5716,-4.5958,-4.5959,0,0,0,-4.5171,-4.5164,-4.5225,-4.5305,-4.5345,-4.5334,-4.535,-4.5558,-4.5581,-4.5651,-4.5677,-4.5716,-4.5719,-4.5957,-4.5958,-4.5964,0,0,0,-4.5164,-4.5142,-4.522,-4.5199,-4.5341,-4.5454,-4.5354,-4.5566,-4.5591,-4.5676,-4.5716,-4.5721,-4.5956,-4.5958,-4.5962,-4.5971,0,0,0,-4.5127,-4.5138,-4.5166,-4.5197,-4.5288,-4.5452,-4.5487,-4.5572,-4.5607,-4.5712,-4.5722,-4.5955,-4.5957,-4.596,-4.5968,-4.6023,0,0,0,-4.5077,-4.5168,-4.5166,-4.5279,-4.5286,-4.5456,-4.5486,-4.5614,-4.5705,-4.5717,-4.5956,-4.5958,-4.5959,-4.5966,-4.6021,-4.6059,-4.6073,0,0,-4.5171,-4.5178,-4.5248,-4.5252,-4.5412,-4.5426,-4.5588,-4.5705,-4.5749,-4.5886,-4.5893,-4.5963,-4.5968,-4.6023,-4.6172,-4.6182,0,0,0,-4.5265,-4.5313,-4.5365,-4.5451,-4.5545,-4.5626,-4.5724,-4.5768,-4.5887,-4.5812,-4.6001,-4.6005,-4.6039,-4.6059,-4.6068,-4.6098,-4.5967,-4.5967,-4.5967,-4.5341,-4.5394,-4.5512,-4.5592,-4.5676,-4.5778,-4.585,-4.5927,-4.5955,-4.5999,-4.6038,-4.6122,-4.6145,-4.6152,-4.6182,-4.6067,-4.6067,-4.6067,-4.6067,-4.5481,-4.5556,-4.5596,-4.5723,-4.578,-4.5888,-4.5991,-4.6008,-4.6116,-4.6097,-4.6129,-4.6098,-4.6162,-4.6191,-4.6068,-4.6068,-4.6068,-4.6068,-4.6068,-4.5532,-4.5577,-4.5633,-4.5764,-4.5861,-4.594,-4.6043,-4.6091,-4.6137,-4.617,-4.6215,-4.6215,-4.6217,-4.6189,-4.619,-4.619,-4.619,-4.619,-4.619,-4.556,-4.5623,-4.5704,-4.5815,-4.5878,-4.5967,-4.6074,-4.6138,-4.622,-4.6247,-4.6247,-4.6269,-4.616,-4.6129,-4.6195,-4.6194,-4.6194,-4.6193,-4.6193,-4.5673,-4.5656,-4.578,-4.5844,-4.5979,-4.6071,-4.6135,-4.626,-4.632,-4.6369,-4.6388,-4.6301,-4.631,-4.6303,-4.6277,-4.6378,-4.6378,-4.6378,-4.6378,-4.5712,-4.5724,-4.5863,-4.5961,-4.6063,-4.6135,-4.6273,-4.636,-4.6446,-4.6486,-4.6481,-4.6453,-4.6444,-4.6458,-4.6448,-4.6424,-4.656,-4.656,-4.656,-4.5782,-4.5807,-4.5914,-4.6,-4.6112,-4.6205,-4.6337,-4.6448,-4.6543,-4.6569,-4.6518,-4.6511,-4.6466,-4.645,-4.6466,-4.6449,-4.6406,0,0]},{"header":{"parameterUnit":"m.s-1","parameterCategory":1,"la1":30.2992,"la2":30.254,"lo1":-89.0895,"lo2":-89.0443,"dy":0.0025,"dx":0.0025,"nx":19,"ny":19,"refTime":"2026-03-13T09:00:00:Z","depth":0,"parameterNumber":3,"parameterNumberName":"V-component_of_WINDS"},"data":[0,0,0,3.9246,3.9247,3.9248,3.9248,3.9268,3.9269,0,0,0,0,0,0,0,0,0,0,0,3.9257,3.9258,3.9246,3.9247,3.9248,3.9248,3.9268,3.9269,0,0,0,0,0,0,0,0,0,0,0,3.9257,3.9258,3.9258,3.9247,3.9248,3.9248,3.9268,3.926,0,0,0,0,0,0,0,0,0,0,3.9256,3.9278,3.9258,3.9258,3.9247,3.9248,3.9248,3.926,3.9261,3.9276,0,3.9292,0,3.9281,3.9271,3.9271,0,0,0,3.9238,3.9277,3.9267,3.9259,3.9247,3.9248,3.9245,3.926,3.9262,3.9277,3.9292,3.9293,3.9281,3.9271,3.9272,3.9386,3.9387,0,0,3.9238,3.9264,3.9266,3.9268,3.9269,3.9245,3.9245,3.9261,3.9279,3.9292,3.9293,3.9282,3.9272,3.9272,3.9385,3.9386,0,0,0,3.9243,3.9264,3.9253,3.9268,3.9267,3.9245,3.9245,3.9278,3.9272,3.9293,3.9282,3.9272,3.9272,3.9384,3.9385,3.9456,0,0,0,3.9243,3.9267,3.9254,3.927,3.9267,3.9272,3.9263,3.9271,3.9272,3.9282,3.9272,3.9273,3.9383,3.9384,3.9452,3.9485,0,0,0,3.9253,3.9268,3.9273,3.9271,3.9273,3.9271,3.9266,3.9271,3.9266,3.9271,3.9273,3.9382,3.9384,3.9448,3.9479,3.9522,0,0,0,3.9272,3.9336,3.9274,3.9342,3.9273,3.9315,3.9266,3.9296,3.931,3.9272,3.9383,3.9385,3.9447,3.9475,3.9518,3.9563,3.9584,0,0,3.9368,3.9349,3.9387,3.9331,3.9391,3.9313,3.9384,3.9371,3.9349,3.9375,3.9377,3.9453,3.9478,3.9521,3.9694,3.9711,0,0,0,3.9426,3.9453,3.9463,3.9477,3.9469,3.9465,3.9439,3.9434,3.9455,3.9367,3.948,3.9494,3.9518,3.9538,3.9553,3.9571,3.9396,3.9395,3.9395,3.9599,3.9565,3.9625,3.9591,3.9605,3.9578,3.9586,3.9574,3.9537,3.9564,3.9572,3.9681,3.9705,3.9716,3.9736,3.9593,3.9593,3.9593,3.9594,3.9735,3.9768,3.9716,3.9755,3.972,3.9752,3.9728,3.97,3.9725,3.9673,3.9692,3.9637,3.9735,3.9751,3.9599,3.9598,3.9597,3.9597,3.9596,3.9844,3.9854,3.9847,3.9863,3.9878,3.9842,3.9868,3.9835,3.9804,3.9823,3.9826,3.9825,3.9819,3.9827,3.9827,3.9828,3.9828,3.9828,3.9829,3.996,3.995,3.9975,3.9972,3.9975,3.9976,3.9949,3.9951,3.9946,3.992,3.9919,3.9879,3.9752,3.972,3.9834,3.9833,3.9833,3.9832,3.9832,4.011,4.007,4.0111,4.0114,4.0106,4.0124,4.0081,4.0089,4.0087,4.0101,4.0056,3.9967,3.9946,3.9934,3.9907,4.0063,4.0063,4.0063,4.0063,4.0202,4.0187,4.022,4.0228,4.0232,4.0197,4.0243,4.0221,4.0194,4.019,4.0162,4.0125,4.0114,4.0098,4.0083,4.0058,4.0249,4.0249,4.0249,4.0291,4.0276,4.0321,4.0293,4.0284,4.0277,4.0319,4.033,4.029,4.0256,4.0186,4.0178,4.0116,4.0098,4.0062,4.0039,3.9992,0,0]}]]